Theta_e
315 310 308 307 305 302 299 296 295 294 294 293 293 292 292 291 290 289 287 287 287 285
310 308 307 307 305 301 298 296 294 294 292 292 291 291 290 289 288 288 286 286 286 284
308 308 308 307 304 299 297 294 293 292 292 291 291 290 290 288 288 287 286 286 284 283
306 307 306 304 301 296 293 293 293 293 292 291 290 289 289 288 287 286 284 284 283 282
306 305 303 301 297 295 293 293 293 292 292 290 289 289 288 287 287 286 283 283 282 282
304 302 299 297 295 293 292 292 292 292 290 289 288 288 288 287 286 285 284 283 282 281
301 299 298 296 293 292 292 291 291 290 289 289 288 287 287 286 285 284 284 283 282 282
298 298 295 293 291 291 290 290 290 289 288 288 288 288 286 285 284 283 282 282 282 281
297 294 292 290 290 288 288 289 287 286 286 286 288 290 290 285 283 283 282 281 280 280
292 290 289 288 287 287 287 287 286 285 285 284 285 291 291 288 283 282 281 281 281 280
290 288 287 287 287 286 285 285 284 284 284 284 285 291 290 288 282 282 281 281 280 280
289 287 286 286 285 285 285 284 284 284 284 284 284 290 289 287 283 282 281 281 281 280
288 287 286 286 285 283 284 284 283 284 283 283 284 289 289 288 283 282 282 281 281 282
287 287 286 284 282 282 282 282 281 282 280 281 282 284 289 290 284 283 282 281 279 280
Wind_Speed
13 9 8 10 9 7 7 6 7 7 6 6 7 6 6 5 4 6 5 7 6 4
11 12 10 11 9 6 6 7 7 8 7 7 7 7 6 5 5 5 5 6 6 4
10 10 10 10 9 8 8 9 8 8 8 7 6 7 7 6 5 6 4 4 6 4
9 10 10 8 8 9 8 9 9 9 8 7 7 7 7 6 7 7 5 4 6 5
10 8 9 9 8 10 9 8 9 8 9 7 7 7 7 7 6 7 7 6 7 6
9 9 8 8 9 9 9 8 8 9 9 8 7 7 7 7 7 7 7 7 7 7
9 8 8 8 9 8 8 8 8 7 7 7 7 7 7 7 7 7 7 6 6 6
8 8 8 8 8 7 8 7 8 7 7 7 7 6 7 7 8 7 6 5 6 6
8 8 8 9 8 8 7 8 8 7 7 7 5 12 13 8 6 7 7 7 6 5
8 8 8 8 8 8 8 6 7 7 8 7 6 11 12 13 6 7 7 7 6 5
9 8 8 9 9 7 6 7 6 6 6 5 5 12 13 12 6 6 6 7 8 8
10 10 9 9 8 5 6 5 5 4 6 6 5 13 14 12 6 5 7 8 9 10
9 10 10 8 8 5 5 4 5 5 6 6 6 12 14 12 5 6 7 8 7 11
9 9 8 7 4 5 5 6 5 5 3 5 6 6 15 17 7 7 6 5 4 6
Wind_Direction
153 160 161 173 170 170 180 152 163 146 149 150 134 129 122 111 110 106 104 108 96 101
150 154 168 175 171 163 150 143 153 142 142 149 144 135 129 117 116 121 114 111 119 113
150 160 168 168 166 147 132 141 145 143 149 151 148 134 129 129 144 118 131 130 121 118
157 169 162 158 147 140 133 146 155 155 152 151 152 149 134 141 144 146 141 134 137 135
164 152 139 147 143 140 150 154 155 152 150 153 156 157 148 159 164 149 160 160 146 163
155 144 150 147 146 148 149 153 154 150 157 161 165 155 161 158 157 163 167 170 166 173
158 155 151 145 144 146 152 153 152 157 160 164 156 157 161 154 160 166 172 171 175 177
144 141 135 138 144 149 152 154 153 156 164 157 157 165 165 162 173 162 159 171 189 193
146 142 142 147 153 151 157 157 162 171 160 160 167 173 170 155 153 172 174 190 200 189
147 150 156 150 148 160 171 160 168 164 165 175 172 167 164 163 173 178 187 191 177 193
156 158 156 157 168 160 162 173 170 170 169 160 180 168 171 179 181 190 196 191 194 195
165 159 163 173 170 153 150 165 169 154 161 164 174 174 176 182 188 201 208 209 203 202
158 165 174 172 167 141 148 145 134 141 167 175 179 189 186 187 182 206 215 221 214 213
170 169 158 142 132 133 126 118 125 148 173 174 182 205 199 205 202 212 218 217 200 215